Year,Month,Day,Hour,Minute,Value (Times are PST for temperature in C)
2006,07,22,00,00,24.80
2006,07,22,00,01,24.80
2006,07,22,00,02,24.70
2006,07,22,00,03,24.70
2006,07,22,00,04,24.70
2006,07,22,00,05,24.60
2006,07,22,00,06,24.60
2006,07,22,00,07,24.60
2006,07,22,00,08,24.60
2006,07,22,00,09,24.60
2006,07,22,00,10,24.60
2006,07,22,00,11,24.50
2006,07,22,00,12,24.50
2006,07,22,00,13,24.50
2006,07,22,00,14,24.40
2006,07,22,00,15,24.40
2006,07,22,00,16,24.40
2006,07,22,00,17,24.40
2006,07,22,00,18,24.30
2006,07,22,00,19,24.30
2006,07,22,00,20,24.30
2006,07,22,00,21,24.30
2006,07,22,00,22,24.30
2006,07,22,00,23,24.20
2006,07,22,00,24,24.20
2006,07,22,00,25,24.20
2006,07,22,00,26,24.10
2006,07,22,00,27,24.10
2006,07,22,00,28,24.10
2006,07,22,00,29,24.10
2006,07,22,00,30,24.00
2006,07,22,00,31,23.90
2006,07,22,00,32,23.90
2006,07,22,00,33,23.80
2006,07,22,00,34,23.80
2006,07,22,00,35,23.70
2006,07,22,00,36,23.70
2006,07,22,00,37,23.70
2006,07,22,00,38,23.70
2006,07,22,00,39,23.70
2006,07,22,00,40,23.60
2006,07,22,00,41,23.60
2006,07,22,00,42,23.50
2006,07,22,00,43,23.40
2006,07,22,00,44,23.40
2006,07,22,00,45,23.30
2006,07,22,00,46,23.30
2006,07,22,00,47,23.30
2006,07,22,00,48,23.30
2006,07,22,00,49,23.30
2006,07,22,00,50,23.30
2006,07,22,00,51,23.30
2006,07,22,00,52,23.30
2006,07,22,00,53,23.30
2006,07,22,00,54,23.20
2006,07,22,00,55,23.20
2006,07,22,00,56,23.20
2006,07,22,00,57,23.20
2006,07,22,00,58,23.20
2006,07,22,00,59,23.10
2006,07,22,01,00,23.10
2006,07,22,01,01,23.10
2006,07,22,01,02,23.10
2006,07,22,01,03,23.10
2006,07,22,01,04,23.10
2006,07,22,01,05,23.10
2006,07,22,01,06,23.00
2006,07,22,01,07,22.90
2006,07,22,01,08,22.90
2006,07,22,01,09,22.90
2006,07,22,01,10,22.90
2006,07,22,01,11,22.80
2006,07,22,01,12,22.80
2006,07,22,01,13,22.70
2006,07,22,01,14,22.70
2006,07,22,01,15,22.60
2006,07,22,01,16,22.60
2006,07,22,01,17,22.60
2006,07,22,01,18,22.50
2006,07,22,01,19,22.50
2006,07,22,01,20,22.50
2006,07,22,01,21,22.50
2006,07,22,01,22,22.50
2006,07,22,01,23,22.50
2006,07,22,01,24,22.50
2006,07,22,01,25,22.50
2006,07,22,01,26,22.60
2006,07,22,01,27,22.60
2006,07,22,01,28,22.50
2006,07,22,01,29,22.50
2006,07,22,01,30,22.50
2006,07,22,01,31,22.50
2006,07,22,01,32,22.50
2006,07,22,01,33,22.50
2006,07,22,01,34,22.50
2006,07,22,01,35,22.50
2006,07,22,01,36,22.50
2006,07,22,01,37,22.50
2006,07,22,01,38,22.50
2006,07,22,01,39,22.40
2006,07,22,01,40,22.40
2006,07,22,01,41,22.40
2006,07,22,01,42,22.40
2006,07,22,01,43,22.40
2006,07,22,01,44,22.40
2006,07,22,01,45,22.40
2006,07,22,01,46,22.40
2006,07,22,01,47,22.40
2006,07,22,01,48,22.40
2006,07,22,01,49,22.40
2006,07,22,01,50,22.30
2006,07,22,01,51,22.30
2006,07,22,01,52,22.30
2006,07,22,01,53,22.30
2006,07,22,01,54,22.30
2006,07,22,01,55,22.20
2006,07,22,01,56,22.20
2006,07,22,01,57,22.20
2006,07,22,01,58,22.20
2006,07,22,01,59,22.20
2006,07,22,02,00,22.20
2006,07,22,02,01,22.10
2006,07,22,02,02,22.10
2006,07,22,02,03,22.10
2006,07,22,02,04,22.10
2006,07,22,02,05,22.10
2006,07,22,02,06,22.00
2006,07,22,02,07,22.00
2006,07,22,02,08,22.00
2006,07,22,02,09,22.00
2006,07,22,02,10,21.90
2006,07,22,02,11,21.90
2006,07,22,02,12,21.90
2006,07,22,02,13,21.90
2006,07,22,02,14,21.90
2006,07,22,02,15,21.90
2006,07,22,02,16,21.90
2006,07,22,02,17,21.90
2006,07,22,02,18,21.90
2006,07,22,02,19,21.90
2006,07,22,02,20,21.90
2006,07,22,02,21,21.90
2006,07,22,02,22,21.90
2006,07,22,02,23,21.90
2006,07,22,02,24,21.90
2006,07,22,02,25,21.90
2006,07,22,02,26,21.90
2006,07,22,02,27,21.90
2006,07,22,02,28,21.90
2006,07,22,02,29,21.90
2006,07,22,02,30,21.90
2006,07,22,02,31,21.90
2006,07,22,02,32,21.90
2006,07,22,02,33,21.90
2006,07,22,02,34,21.90
2006,07,22,02,35,21.90
2006,07,22,02,36,21.90
2006,07,22,02,37,21.90
2006,07,22,02,38,21.90
2006,07,22,02,39,22.00
2006,07,22,02,40,22.00
2006,07,22,02,41,22.00
2006,07,22,02,42,22.00
2006,07,22,02,43,22.00
2006,07,22,02,44,22.00
2006,07,22,02,45,22.00
2006,07,22,02,46,21.90
2006,07,22,02,47,21.90
2006,07,22,02,48,21.90
2006,07,22,02,49,21.90
2006,07,22,02,50,21.90
2006,07,22,02,51,21.90
2006,07,22,02,52,21.90
2006,07,22,02,53,21.90
2006,07,22,02,54,21.90
2006,07,22,02,55,21.80
2006,07,22,02,56,21.80
2006,07,22,02,57,21.80
2006,07,22,02,58,21.80
2006,07,22,02,59,21.80
2006,07,22,03,00,21.80
2006,07,22,03,01,21.80
2006,07,22,03,02,21.80
2006,07,22,03,03,21.70
2006,07,22,03,04,21.70
2006,07,22,03,05,21.70
2006,07,22,03,06,21.60
2006,07,22,03,07,21.60
2006,07,22,03,08,21.60
2006,07,22,03,09,21.60
2006,07,22,03,10,21.60
2006,07,22,03,11,21.60
2006,07,22,03,12,21.60
2006,07,22,03,13,21.60
2006,07,22,03,14,21.50
2006,07,22,03,15,21.40
2006,07,22,03,16,21.40
2006,07,22,03,17,21.40
2006,07,22,03,18,21.40
2006,07,22,03,19,21.40
2006,07,22,03,20,21.30
2006,07,22,03,21,21.30
2006,07,22,03,22,21.30
2006,07,22,03,23,21.30
2006,07,22,03,24,21.30
2006,07,22,03,25,21.30
2006,07,22,03,26,21.30
2006,07,22,03,27,21.30
2006,07,22,03,28,21.30
2006,07,22,03,29,21.30
2006,07,22,03,30,21.30
2006,07,22,03,31,21.30
2006,07,22,03,32,21.30
2006,07,22,03,33,21.30
2006,07,22,03,34,21.30
2006,07,22,03,35,21.30
2006,07,22,03,36,21.30
2006,07,22,03,37,21.30
2006,07,22,03,38,21.30
2006,07,22,03,39,21.20
2006,07,22,03,40,21.20
2006,07,22,03,41,21.20
2006,07,22,03,42,21.20
2006,07,22,03,43,21.20
2006,07,22,03,44,21.20
2006,07,22,03,45,21.20
2006,07,22,03,46,21.30
2006,07,22,03,47,21.30
2006,07,22,03,48,21.30
2006,07,22,03,49,21.30
2006,07,22,03,50,21.30
2006,07,22,03,51,21.30
2006,07,22,03,52,21.30
2006,07,22,03,53,21.30
2006,07,22,03,54,21.30
2006,07,22,03,55,21.30
2006,07,22,03,56,21.30
2006,07,22,03,57,21.30
2006,07,22,03,58,21.30
2006,07,22,03,59,21.30
2006,07,22,04,00,21.30
2006,07,22,04,01,21.30
2006,07,22,04,02,21.40
2006,07,22,04,03,21.40
2006,07,22,04,04,21.40
2006,07,22,04,05,21.40
2006,07,22,04,06,21.30
2006,07,22,04,07,21.30
2006,07,22,04,08,21.30
2006,07,22,04,09,21.30
2006,07,22,04,10,21.30
2006,07,22,04,11,21.30
2006,07,22,04,12,21.30
2006,07,22,04,13,21.30
2006,07,22,04,14,21.30
2006,07,22,04,15,21.30
2006,07,22,04,16,21.30
2006,07,22,04,17,21.30
2006,07,22,04,18,21.30
2006,07,22,04,19,21.30
2006,07,22,04,20,21.30
2006,07,22,04,21,21.30
2006,07,22,04,22,21.30
2006,07,22,04,23,21.30
2006,07,22,04,24,21.30
2006,07,22,04,25,21.30
2006,07,22,04,26,21.30
2006,07,22,04,27,21.30
2006,07,22,04,28,21.30
2006,07,22,04,29,21.30
2006,07,22,04,30,21.30
2006,07,22,04,31,21.30
2006,07,22,04,32,21.20
2006,07,22,04,33,21.20
2006,07,22,04,34,21.20
2006,07,22,04,35,21.20
2006,07,22,04,36,21.20
2006,07,22,04,37,21.20
2006,07,22,04,38,21.20
2006,07,22,04,39,21.20
2006,07,22,04,40,21.20
2006,07,22,04,41,21.20
2006,07,22,04,42,21.20
2006,07,22,04,43,21.20
2006,07,22,04,44,21.20
2006,07,22,04,45,21.20
2006,07,22,04,46,21.20
2006,07,22,04,47,21.20
2006,07,22,04,48,21.20
2006,07,22,04,49,21.20
2006,07,22,04,50,21.20
2006,07,22,04,51,21.20
2006,07,22,04,52,21.20
2006,07,22,04,53,21.20
2006,07,22,04,54,21.20
2006,07,22,04,55,21.20
2006,07,22,04,56,21.20
2006,07,22,04,57,21.30
2006,07,22,04,58,21.20
2006,07,22,04,59,21.20
2006,07,22,05,00,21.30
2006,07,22,05,01,21.30
2006,07,22,05,02,21.30
2006,07,22,05,03,21.30
2006,07,22,05,04,21.30
2006,07,22,05,05,21.30
2006,07,22,05,06,21.30
2006,07,22,05,07,21.30
2006,07,22,05,08,21.30
2006,07,22,05,09,21.30
2006,07,22,05,10,21.30
2006,07,22,05,11,21.30
2006,07,22,05,12,21.20
2006,07,22,05,13,21.20
2006,07,22,05,14,21.20
2006,07,22,05,15,21.20
2006,07,22,05,16,21.20
2006,07,22,05,17,21.20
2006,07,22,05,18,21.10
2006,07,22,05,19,21.10
2006,07,22,05,20,21.10
2006,07,22,05,21,21.10
2006,07,22,05,22,21.10
2006,07,22,05,23,21.10
2006,07,22,05,24,21.10
2006,07,22,05,25,21.10
2006,07,22,05,26,21.00
2006,07,22,05,27,20.80
2006,07,22,05,28,20.60
2006,07,22,05,29,20.40
2006,07,22,05,30,20.30
2006,07,22,05,31,20.10
2006,07,22,05,32,20.00
2006,07,22,05,33,19.90
2006,07,22,05,34,19.80
2006,07,22,05,35,19.60
2006,07,22,05,36,19.60
2006,07,22,05,37,19.40
2006,07,22,05,38,19.40
2006,07,22,05,39,19.30
2006,07,22,05,40,19.20
2006,07,22,05,41,19.10
2006,07,22,05,42,19.10
2006,07,22,05,43,19.00
2006,07,22,05,44,18.90
2006,07,22,05,45,18.90
2006,07,22,05,46,18.80
2006,07,22,05,47,18.80
2006,07,22,05,48,18.70
2006,07,22,05,49,18.70
2006,07,22,05,50,18.70
2006,07,22,05,51,18.70
2006,07,22,05,52,18.60
2006,07,22,05,53,18.60
2006,07,22,05,54,18.60
2006,07,22,05,55,18.60
2006,07,22,05,56,18.60
2006,07,22,05,57,18.60
2006,07,22,05,58,18.60
2006,07,22,05,59,18.60
2006,07,22,06,00,18.60
2006,07,22,06,01,18.60
2006,07,22,06,02,18.60
2006,07,22,06,03,18.60
2006,07,22,06,04,18.60
2006,07,22,06,05,18.60
2006,07,22,06,06,18.60
2006,07,22,06,07,18.60
2006,07,22,06,08,18.60
2006,07,22,06,09,18.60
2006,07,22,06,10,18.60
2006,07,22,06,11,18.60
2006,07,22,06,12,18.60
2006,07,22,06,13,18.50
2006,07,22,06,14,18.50
2006,07,22,06,15,18.50
2006,07,22,06,16,18.50
2006,07,22,06,17,18.50
2006,07,22,06,18,18.50
2006,07,22,06,19,18.50
2006,07,22,06,20,18.50
2006,07,22,06,21,18.50
2006,07,22,06,22,18.60
2006,07,22,06,23,18.60
2006,07,22,06,24,18.60
2006,07,22,06,25,18.60
2006,07,22,06,26,18.70
2006,07,22,06,27,18.70
2006,07,22,06,28,18.70
2006,07,22,06,29,18.80
2006,07,22,06,30,18.80
2006,07,22,06,31,18.90
2006,07,22,06,32,18.90
2006,07,22,06,33,18.90
2006,07,22,06,34,18.90
2006,07,22,06,35,18.90
2006,07,22,06,36,18.90
2006,07,22,06,37,19.00
2006,07,22,06,38,19.10
2006,07,22,06,39,19.10
2006,07,22,06,40,19.10
2006,07,22,06,41,19.10
2006,07,22,06,42,19.10
2006,07,22,06,43,19.10
2006,07,22,06,44,19.10
2006,07,22,06,45,19.10
2006,07,22,06,46,19.10
2006,07,22,06,47,19.10
2006,07,22,06,48,19.10
2006,07,22,06,49,19.10
2006,07,22,06,50,19.20
2006,07,22,06,51,19.20
2006,07,22,06,52,19.20
2006,07,22,06,53,19.30
2006,07,22,06,54,19.30
2006,07,22,06,55,19.30
2006,07,22,06,56,19.40
2006,07,22,06,57,19.40
2006,07,22,06,58,19.50
2006,07,22,06,59,19.60
2006,07,22,07,00,19.60
2006,07,22,07,01,19.70
2006,07,22,07,02,19.80
2006,07,22,07,03,19.80
2006,07,22,07,04,19.90
2006,07,22,07,05,19.90
2006,07,22,07,06,19.90
2006,07,22,07,07,20.00
2006,07,22,07,08,20.10
2006,07,22,07,09,20.10
2006,07,22,07,10,20.20
2006,07,22,07,11,20.20
2006,07,22,07,12,20.20
2006,07,22,07,13,20.30
2006,07,22,07,14,20.30
2006,07,22,07,15,20.40
2006,07,22,07,16,20.50
2006,07,22,07,17,20.50
2006,07,22,07,18,20.60
2006,07,22,07,19,20.60
2006,07,22,07,20,20.70
2006,07,22,07,21,20.70
2006,07,22,07,22,20.80
2006,07,22,07,23,20.80
2006,07,22,07,24,20.90
2006,07,22,07,25,21.00
2006,07,22,07,26,21.00
2006,07,22,07,27,21.10
2006,07,22,07,28,21.20
2006,07,22,07,29,21.20
2006,07,22,07,30,21.30
2006,07,22,07,31,21.30
2006,07,22,07,32,21.40
2006,07,22,07,33,21.50
2006,07,22,07,34,21.60
2006,07,22,07,35,21.60
2006,07,22,07,36,21.70
2006,07,22,07,37,21.80
2006,07,22,07,38,21.90
2006,07,22,07,39,22.00
2006,07,22,07,40,22.10
2006,07,22,07,41,22.20
2006,07,22,07,42,22.30
2006,07,22,07,43,22.40
2006,07,22,07,44,22.60
2006,07,22,07,45,22.70
2006,07,22,07,46,22.80
2006,07,22,07,47,22.90
2006,07,22,07,48,22.90
2006,07,22,07,49,23.00
2006,07,22,07,50,23.10
2006,07,22,07,51,23.20
2006,07,22,07,52,23.30
2006,07,22,07,53,23.30
2006,07,22,07,54,23.40
2006,07,22,07,55,23.40
2006,07,22,07,56,23.40
2006,07,22,07,57,23.40
2006,07,22,07,58,23.40
2006,07,22,07,59,23.40
2006,07,22,08,00,23.40
2006,07,22,08,01,23.50
2006,07,22,08,02,23.60
2006,07,22,08,03,23.60
2006,07,22,08,04,23.60
2006,07,22,08,05,23.60
2006,07,22,08,06,23.60
2006,07,22,08,07,23.60
2006,07,22,08,08,23.60
2006,07,22,08,09,23.60
2006,07,22,08,10,23.50
2006,07,22,08,11,23.40
2006,07,22,08,12,23.30
2006,07,22,08,13,23.30
2006,07,22,08,14,23.30
2006,07,22,08,15,23.30
2006,07,22,08,16,23.30
2006,07,22,08,17,23.30
2006,07,22,08,18,23.30
2006,07,22,08,19,23.40
2006,07,22,08,20,23.40
2006,07,22,08,21,23.60
2006,07,22,08,22,23.60
2006,07,22,08,23,23.70
2006,07,22,08,24,23.80
2006,07,22,08,25,23.80
2006,07,22,08,26,23.90
2006,07,22,08,27,24.00
2006,07,22,08,28,24.10
2006,07,22,08,29,24.10
2006,07,22,08,30,24.10
2006,07,22,08,31,24.00
2006,07,22,08,32,23.90
2006,07,22,08,33,23.90
2006,07,22,08,34,24.00
2006,07,22,08,35,24.10
2006,07,22,08,36,24.10
2006,07,22,08,37,24.20
2006,07,22,08,38,24.20
2006,07,22,08,39,24.30
2006,07,22,08,40,24.40
2006,07,22,08,41,24.40
2006,07,22,08,42,24.50
2006,07,22,08,43,24.60
2006,07,22,08,44,24.70
2006,07,22,08,45,24.90
2006,07,22,08,46,25.10
2006,07,22,08,47,25.20
2006,07,22,08,48,25.30
2006,07,22,08,49,25.30
2006,07,22,08,50,25.40
2006,07,22,08,51,25.50
2006,07,22,08,52,25.60
2006,07,22,08,53,25.70
2006,07,22,08,54,25.80
2006,07,22,08,55,25.90
2006,07,22,08,56,26.00
2006,07,22,08,57,26.20
2006,07,22,08,58,26.30
2006,07,22,08,59,26.30
2006,07,22,09,00,26.40
2006,07,22,09,01,26.40
2006,07,22,09,02,26.10
2006,07,22,09,03,25.70
2006,07,22,09,04,25.00
2006,07,22,09,05,24.20
2006,07,22,09,06,23.30
2006,07,22,09,07,22.30
2006,07,22,09,08,21.30
2006,07,22,09,09,20.50
2006,07,22,09,10,19.80
2006,07,22,09,11,19.30
2006,07,22,09,12,18.70
2006,07,22,09,13,18.10
2006,07,22,09,14,17.60
2006,07,22,09,15,17.30
2006,07,22,09,16,17.20
2006,07,22,09,17,17.20
2006,07,22,09,18,17.20
2006,07,22,09,19,17.30
2006,07,22,09,20,17.30
2006,07,22,09,21,17.50
2006,07,22,09,22,17.60
2006,07,22,09,23,17.80
2006,07,22,09,24,18.00
2006,07,22,09,25,18.30
2006,07,22,09,26,18.60
2006,07,22,09,27,18.80
2006,07,22,09,28,19.10
2006,07,22,09,29,19.40
2006,07,22,09,30,19.70
2006,07,22,09,31,19.90
2006,07,22,09,32,20.00
2006,07,22,09,33,20.10
2006,07,22,09,34,20.00
2006,07,22,09,35,19.90
2006,07,22,09,36,19.80
2006,07,22,09,37,19.70
2006,07,22,09,38,19.70
2006,07,22,09,39,19.60
2006,07,22,09,40,19.50
2006,07,22,09,41,19.50
2006,07,22,09,42,19.40
2006,07,22,09,43,19.30
2006,07,22,09,44,19.10
2006,07,22,09,45,19.00
2006,07,22,09,46,18.90
2006,07,22,09,47,18.90
2006,07,22,09,48,18.90
2006,07,22,09,49,19.00
2006,07,22,09,50,19.10
2006,07,22,09,51,19.10
2006,07,22,09,52,19.30
2006,07,22,09,53,19.40
2006,07,22,09,54,19.50
2006,07,22,09,55,19.70
2006,07,22,09,56,20.00
2006,07,22,09,57,20.20
2006,07,22,09,58,20.30
2006,07,22,09,59,20.50
2006,07,22,10,00,20.70
2006,07,22,10,01,20.90
2006,07,22,10,02,21.10
2006,07,22,10,03,21.30
2006,07,22,10,04,21.50
2006,07,22,10,05,21.80
2006,07,22,10,06,22.00
2006,07,22,10,07,22.20
2006,07,22,10,08,22.50
2006,07,22,10,09,22.90
2006,07,22,10,10,23.30
2006,07,22,10,11,23.70
2006,07,22,10,12,24.10
2006,07,22,10,13,24.40
2006,07,22,10,14,24.60
2006,07,22,10,15,24.90
2006,07,22,10,16,25.10
2006,07,22,10,17,25.30
2006,07,22,10,18,25.50
2006,07,22,10,19,25.70
2006,07,22,10,20,25.80
2006,07,22,10,21,26.00
2006,07,22,10,22,26.20
2006,07,22,10,23,26.40
2006,07,22,10,24,26.50
2006,07,22,10,25,26.50
2006,07,22,10,26,26.10
2006,07,22,10,27,25.40
2006,07,22,10,28,25.00
2006,07,22,10,29,24.70
2006,07,22,10,30,24.30
2006,07,22,10,31,23.50
2006,07,22,10,32,22.90
2006,07,22,10,33,22.40
2006,07,22,10,34,22.00
2006,07,22,10,35,21.70
2006,07,22,10,36,21.60
2006,07,22,10,37,21.70
2006,07,22,10,38,21.80
2006,07,22,10,39,22.00
2006,07,22,10,40,22.10
2006,07,22,10,41,22.10
2006,07,22,10,42,22.20
2006,07,22,10,43,22.30
2006,07,22,10,44,22.40
2006,07,22,10,45,22.40
2006,07,22,10,46,22.20
2006,07,22,10,47,22.00
2006,07,22,10,48,21.90
2006,07,22,10,49,22.00
2006,07,22,10,50,22.10
2006,07,22,10,51,22.10
2006,07,22,10,52,22.20
2006,07,22,10,53,22.10
2006,07,22,10,54,22.00
2006,07,22,10,55,22.10
2006,07,22,10,56,22.10
2006,07,22,10,57,22.10
2006,07,22,10,58,21.90
2006,07,22,10,59,21.80
2006,07,22,11,00,21.70
2006,07,22,11,01,21.90
2006,07,22,11,02,22.00
2006,07,22,11,03,22.10
2006,07,22,11,04,22.30
2006,07,22,11,05,22.50
2006,07,22,11,06,22.60
2006,07,22,11,07,22.70
2006,07,22,11,08,22.90
2006,07,22,11,09,22.90
2006,07,22,11,10,22.90
2006,07,22,11,11,22.80
2006,07,22,11,12,22.70
2006,07,22,11,13,22.70
2006,07,22,11,14,22.70
2006,07,22,11,15,22.70
2006,07,22,11,16,22.60
2006,07,22,11,17,22.70
2006,07,22,11,18,22.80
2006,07,22,11,19,22.90
2006,07,22,11,20,23.10
2006,07,22,11,21,23.30
2006,07,22,11,22,23.60
2006,07,22,11,23,23.80
2006,07,22,11,24,24.00
2006,07,22,11,25,24.30
2006,07,22,11,26,24.40
2006,07,22,11,27,24.50
2006,07,22,11,28,24.50
2006,07,22,11,29,24.50
2006,07,22,11,30,24.50
2006,07,22,11,31,24.60
2006,07,22,11,32,24.50
2006,07,22,11,33,24.40
2006,07,22,11,34,24.30
2006,07,22,11,35,24.30
2006,07,22,11,36,24.40
2006,07,22,11,37,24.40
2006,07,22,11,38,24.30
2006,07,22,11,39,24.40
2006,07,22,11,40,24.50
2006,07,22,11,41,24.70
2006,07,22,11,42,24.90
2006,07,22,11,43,25.00
2006,07,22,11,44,25.10
2006,07,22,11,45,25.20
2006,07,22,11,46,25.30
2006,07,22,11,47,25.20
2006,07,22,11,48,25.00
2006,07,22,11,49,25.00
2006,07,22,11,50,25.10
2006,07,22,11,51,25.20
2006,07,22,11,52,25.20
2006,07,22,11,53,25.30
2006,07,22,11,54,25.30
2006,07,22,11,55,25.30
2006,07,22,11,56,25.40
2006,07,22,11,57,25.40
2006,07,22,11,58,25.40
2006,07,22,11,59,25.40
2006,07,22,12,00,25.50
2006,07,22,12,01,25.50
2006,07,22,12,02,25.60
2006,07,22,12,03,25.70
2006,07,22,12,04,25.90
2006,07,22,12,05,26.00
2006,07,22,12,06,26.20
2006,07,22,12,07,26.20
2006,07,22,12,08,26.40
2006,07,22,12,09,26.60
2006,07,22,12,10,26.70
2006,07,22,12,11,26.80
2006,07,22,12,12,26.80
2006,07,22,12,13,27.00
2006,07,22,12,14,27.10
2006,07,22,12,15,27.20
2006,07,22,12,16,27.40
2006,07,22,12,17,27.50
2006,07,22,12,18,27.70
2006,07,22,12,19,27.70
2006,07,22,12,20,27.90
2006,07,22,12,21,28.00
2006,07,22,12,22,28.10
2006,07,22,12,23,28.10
2006,07,22,12,24,28.20
2006,07,22,12,25,28.30
2006,07,22,12,26,28.30
2006,07,22,12,27,28.50
2006,07,22,12,28,28.60
2006,07,22,12,29,28.70
2006,07,22,12,30,28.80
2006,07,22,12,31,28.90
2006,07,22,12,32,28.90
2006,07,22,12,33,28.90
2006,07,22,12,34,29.00
2006,07,22,12,35,29.10
2006,07,22,12,36,29.20
2006,07,22,12,37,29.20
2006,07,22,12,38,29.30
2006,07,22,12,39,29.30
2006,07,22,12,40,29.40
2006,07,22,12,41,29.50
2006,07,22,12,42,29.50
2006,07,22,12,43,29.50
2006,07,22,12,44,29.60
2006,07,22,12,45,29.70
2006,07,22,12,46,29.90
2006,07,22,12,47,30.00
2006,07,22,12,48,30.10
2006,07,22,12,49,30.20
2006,07,22,12,50,30.20
2006,07,22,12,51,30.30
2006,07,22,12,52,30.40
2006,07,22,12,53,30.40
2006,07,22,12,54,30.40
2006,07,22,12,55,30.60
2006,07,22,12,56,30.60
2006,07,22,12,57,30.60
2006,07,22,12,58,30.70
2006,07,22,12,59,30.70
2006,07,22,13,00,30.70
2006,07,22,13,01,30.80
2006,07,22,13,02,31.00
2006,07,22,13,03,31.10
2006,07,22,13,04,31.20
2006,07,22,13,05,31.20
2006,07,22,13,06,31.30
2006,07,22,13,07,31.30
2006,07,22,13,08,31.20
2006,07,22,13,09,31.20
2006,07,22,13,10,31.20
2006,07,22,13,11,31.30
2006,07,22,13,12,31.30
2006,07,22,13,13,31.30
2006,07,22,13,14,31.30
2006,07,22,13,15,31.40
2006,07,22,13,16,31.60
2006,07,22,13,17,31.90
2006,07,22,13,18,32.10
2006,07,22,13,19,32.30
2006,07,22,13,20,32.40
2006,07,22,13,21,32.70
2006,07,22,13,22,32.60
2006,07,22,13,23,32.00
2006,07,22,13,24,31.50
2006,07,22,13,25,30.90
2006,07,22,13,26,30.10
2006,07,22,13,27,29.00
2006,07,22,13,28,28.20
2006,07,22,13,29,27.40
2006,07,22,13,30,27.10
2006,07,22,13,31,26.90
2006,07,22,13,32,26.80
2006,07,22,13,33,26.70
2006,07,22,13,34,26.60
2006,07,22,13,35,26.40
2006,07,22,13,36,26.30
2006,07,22,13,37,26.20
2006,07,22,13,38,26.00
2006,07,22,13,39,26.00
2006,07,22,13,40,26.10
2006,07,22,13,41,26.10
2006,07,22,13,42,26.10
2006,07,22,13,43,26.00
2006,07,22,13,44,26.10
2006,07,22,13,45,26.20
2006,07,22,13,46,26.20
2006,07,22,13,47,26.20
2006,07,22,13,48,26.20
2006,07,22,13,49,26.30
2006,07,22,13,50,26.40
2006,07,22,13,51,26.40
2006,07,22,13,52,26.30
2006,07,22,13,53,26.00
2006,07,22,13,54,25.80
2006,07,22,13,55,25.80
2006,07,22,13,56,25.90
2006,07,22,13,57,25.90
2006,07,22,13,58,25.80
2006,07,22,13,59,25.80
2006,07,22,14,00,25.80
2006,07,22,14,01,25.80
2006,07,22,14,02,25.90
2006,07,22,14,03,26.00
2006,07,22,14,04,26.00
2006,07,22,14,05,26.00
2006,07,22,14,06,26.00
2006,07,22,14,07,26.20
2006,07,22,14,08,26.30
2006,07,22,14,09,26.40
2006,07,22,14,10,26.40
2006,07,22,14,11,26.30
2006,07,22,14,12,26.30
2006,07,22,14,13,26.40
2006,07,22,14,14,26.50
2006,07,22,14,15,26.60
2006,07,22,14,16,26.70
2006,07,22,14,17,26.90
2006,07,22,14,18,26.90
2006,07,22,14,19,26.90
2006,07,22,14,20,26.70
2006,07,22,14,21,26.60
2006,07,22,14,22,26.70
2006,07,22,14,23,26.70
2006,07,22,14,24,26.70
2006,07,22,14,25,26.70
2006,07,22,14,26,26.60
2006,07,22,14,27,26.50
2006,07,22,14,28,26.40
2006,07,22,14,29,26.30
2006,07,22,14,30,26.30
2006,07,22,14,31,26.30
2006,07,22,14,32,26.30
2006,07,22,14,33,26.40
2006,07,22,14,34,26.50
2006,07,22,14,35,26.60
2006,07,22,14,36,26.60
2006,07,22,14,37,26.80
2006,07,22,14,38,26.90
2006,07,22,14,39,27.00
2006,07,22,14,40,27.10
2006,07,22,14,41,27.20
2006,07,22,14,42,27.10
2006,07,22,14,43,27.10
2006,07,22,14,44,27.10
2006,07,22,14,45,27.20
2006,07,22,14,46,27.30
2006,07,22,14,47,27.30
2006,07,22,14,48,27.20
2006,07,22,14,49,27.30
2006,07,22,14,50,27.30
2006,07,22,14,51,27.40
2006,07,22,14,52,27.50
2006,07,22,14,53,27.60
2006,07,22,14,54,27.60
2006,07,22,14,55,27.60
2006,07,22,14,56,27.60
2006,07,22,14,57,27.60
2006,07,22,14,58,27.70
2006,07,22,14,59,27.60
2006,07,22,15,00,27.60
2006,07,22,15,01,27.70
2006,07,22,15,02,27.80
2006,07,22,15,03,27.90
2006,07,22,15,04,28.00
2006,07,22,15,05,28.00
2006,07,22,15,06,28.10
2006,07,22,15,07,28.10
2006,07,22,15,08,28.20
2006,07,22,15,09,28.20
2006,07,22,15,10,28.20
2006,07,22,15,11,28.20
2006,07,22,15,12,28.20
2006,07,22,15,13,28.30
2006,07,22,15,14,28.30
2006,07,22,15,15,28.20
2006,07,22,15,16,28.30
2006,07,22,15,17,28.30
2006,07,22,15,18,28.30
2006,07,22,15,19,28.20
2006,07,22,15,20,28.20
2006,07,22,15,21,28.10
2006,07,22,15,22,28.10
2006,07,22,15,23,28.00
2006,07,22,15,24,28.00
2006,07,22,15,25,27.90
2006,07,22,15,26,27.70
2006,07,22,15,27,27.70
2006,07,22,15,28,27.70
2006,07,22,15,29,27.60
2006,07,22,15,30,27.60
2006,07,22,15,31,27.50
2006,07,22,15,32,27.40
2006,07,22,15,33,27.50
2006,07,22,15,34,27.60
2006,07,22,15,35,27.70
2006,07,22,15,36,27.70
2006,07,22,15,37,27.70
2006,07,22,15,38,27.70
2006,07,22,15,39,27.90
2006,07,22,15,40,27.80
2006,07,22,15,41,27.90
2006,07,22,15,42,27.90
2006,07,22,15,43,27.90
2006,07,22,15,44,27.80
2006,07,22,15,45,27.60
2006,07,22,15,46,27.30
2006,07,22,15,47,27.10
2006,07,22,15,48,27.10
2006,07,22,15,49,27.10
2006,07,22,15,50,27.10
2006,07,22,15,51,27.10
2006,07,22,15,52,27.10
2006,07,22,15,53,27.20
2006,07,22,15,54,27.10
2006,07,22,15,55,27.10
2006,07,22,15,56,27.20
2006,07,22,15,57,27.20
2006,07,22,15,58,27.30
2006,07,22,15,59,27.40
2006,07,22,16,00,27.60
2006,07,22,16,01,27.80
2006,07,22,16,02,27.90
2006,07,22,16,03,27.90
2006,07,22,16,04,27.80
2006,07,22,16,05,27.80
2006,07,22,16,06,27.80
2006,07,22,16,07,27.80
2006,07,22,16,08,27.80
2006,07,22,16,09,27.70
2006,07,22,16,10,27.60
2006,07,22,16,11,27.60
2006,07,22,16,12,27.60
2006,07,22,16,13,27.50
2006,07,22,16,14,27.40
2006,07,22,16,15,27.30
2006,07,22,16,16,27.30
2006,07,22,16,17,27.30
2006,07,22,16,18,27.20
2006,07,22,16,19,27.10
2006,07,22,16,20,27.10
2006,07,22,16,21,27.10
2006,07,22,16,22,27.10
2006,07,22,16,23,27.10
2006,07,22,16,24,27.20
2006,07,22,16,25,27.20
2006,07,22,16,26,27.20
2006,07,22,16,27,27.20
2006,07,22,16,28,27.10
2006,07,22,16,29,27.10
2006,07,22,16,30,27.10
2006,07,22,16,31,27.10
2006,07,22,16,32,27.10
2006,07,22,16,33,27.10
2006,07,22,16,34,27.20
2006,07,22,16,35,27.20
2006,07,22,16,36,27.30
2006,07,22,16,37,27.30
2006,07,22,16,38,27.20
2006,07,22,16,39,27.00
2006,07,22,16,40,26.90
2006,07,22,16,41,26.80
2006,07,22,16,42,26.70
2006,07,22,16,43,26.70
2006,07,22,16,44,26.70
2006,07,22,16,45,26.70
2006,07,22,16,46,26.60
2006,07,22,16,47,26.60
2006,07,22,16,48,26.60
2006,07,22,16,49,26.60
2006,07,22,16,50,26.50
2006,07,22,16,51,26.50
2006,07,22,16,52,26.40
2006,07,22,16,53,26.50
2006,07,22,16,54,26.60
2006,07,22,16,55,26.60
2006,07,22,16,56,26.60
2006,07,22,16,57,26.60
2006,07,22,16,58,26.50
2006,07,22,16,59,26.30
2006,07,22,17,00,26.20
2006,07,22,17,01,26.20
2006,07,22,17,02,26.10
2006,07,22,17,03,26.10
2006,07,22,17,04,26.10
2006,07,22,17,05,26.00
2006,07,22,17,06,26.10
2006,07,22,17,07,26.20
2006,07,22,17,08,26.30
2006,07,22,17,09,26.30
2006,07,22,17,10,26.40
2006,07,22,17,11,26.50
2006,07,22,17,12,26.60
2006,07,22,17,13,26.60
2006,07,22,17,14,26.60
2006,07,22,17,15,26.70
2006,07,22,17,16,26.70
2006,07,22,17,17,26.70
2006,07,22,17,18,26.80
2006,07,22,17,19,26.80